Showing default

TIANMU-1 05, 55975

Orbit data source: Space-Track

TIANMU-1 05, 55975 is a payload satellite owned by Hangtian Tianmu (CN) in SSO that was launched on Wed, 22 Mar 2023 UTC via a KUAIZHOU-1A launch vehicle from the Jiuquan Satellite Launch Center, China (JSC). Payload-class satellites include a variety of spacecraft equipped with specific instruments for various scientific and technological missions. These include communications satellites like Starlink; space stations such as the ISS; scientific satellites like the Hubble; Earth observation satellites from companies like Planet Labs, Umbra, and HawkEye 360; GPS; miniature CubeSats for education and research; and military/defense satellites.

Loading next visibility...
Identifier
55975, 2023-039C
Orbit
SSO
Country
Flag of CNCN / PRC
Related business
Manufacturer
Hangtian Tianmu
Mission
Operational Commercial Weather
Bus & Motor
TIANMU, Unknown motor
Mass
50 kg wet, ~50 kg dry
Launch date (UTC)
2023-03-22 (3 years ago)
Launch vehicle
KUAIZHOU-1A
Launch site
Jiuquan Satellite Launch Center, China (JSC)
Object type
Payload
Rocket body
Debris
Shape & HBR
Box, 0.8 m
Radar Cross Section
2.000 m², Large (>1 m²)

Expand to show TLE details & history
Last TLE update: 10 hours ago

TLE from 10 hours ago
0 TIANMU-1 05
1 55975U 23039C   26163.82692868  .00016360  00000-0  32458-3 0  9996
2 55975  97.5206 337.2429 0003845 124.6477 235.5136 15.47093105180147
Epoch: 2026-06-12T19:50Z
TLE epoch observation values (Epoch: 2026-06-12T19:50:46.637Z)
Latitude
0.00001°
Longitude
138.39778°
Altitude
429.841 km
Speed
7.653 km/s
True Right ascension
22h 28m 58s
True Declination
0° 00' 00"
Sunlit
Object was in daylight at epoch
Visualization orbit readout
Latitude
Unknown
Longitude
Unknown
Altitude
Unknown
Speed
Unknown
Apparent Right ascension
Unknown
Apparent Declination
Unknown
Sunlit
N/A
Visualization observer readout
Local Sidereal Time
16:29:01
Azimuth
Unknown
Elevation
Unknown
Doppler factor
Unknown
Orbital elements
Apogee altitude
424.784 km
Perigee altitude
419.555 km
Semi-major axis
6,800.307 km
Eccentricity
0.00038
Inclination
97.5206°
RAAN
337.2429°
Arg. of periapsis
124.6477°
True anomaly
235.47729°
Mean anomaly
235.5136°
Eccentric anomaly
235.49545°
Mean motion
3.87035 °/min
Orbital period
93.01 mins
BSTAR
0.00032458
Loading maneuver chart data...
Computing Atmospheric mass density...
Loading historical data...
Loading historical data...
Loading historical data...
Loading historical data...
Loading historical data...
Loading historical data...
Loading historical data...
Other satellites on launch #39 in the year 2023 (2023-03-22 UTC)

Documentation

Showing up to 5 results
|